Hyannis, MA

9:42 PM EDT on June 24, 2017 (GMT -0400)
Barnstable Municipal-Boardman-Polando Field

Weather History for KHYA - March, 2014

Change the Weather History Date:

Saturday, March 15, 2014

  Actual Average Record
Temperature  
Mean Temperature 44 °F -  
Max Temperature 53 °F 44 °F 57 °F (2007)
Min Temperature 33 °F 29 °F 11 °F (1932)
Degree Days  
Heating Degree Days 21    
Moisture  
Dew Point 34 °F    
Average Humidity 68    
Maximum Humidity 86    
Minimum Humidity 46    
Precipitation  
Precipitation 0.01 in - - ()
Sea Level Pressure  
Sea Level Pressure 29.81 in    
Wind  
Wind Speed 13 mph (SW)    
Max Wind Speed 18 mph    
Max Gust Speed 26 mph    
Visibility 10 miles    
Events Rain    
Averages and records for this station are not official NWS values.
T = Trace of Precipitation, MM = Missing Value Source: NWS Daily Summary

Daily Weather History Graph

Daily Weather History Graph

Search for Another Location

Airport or City:

Trip Planner

Search our weather history database for the weather conditions in past years. The results will help you decide how hot, cold, wet, or windy it might be!

Date:

Astronomy

Mar. 15, 2014 Rise Set
Actual Time 6:52 AM EDT 6:47 PM EDT
Civil Twilight 6:25 AM EDT 7:15 PM EDT
Nautical Twilight 5:53 AM EDT 7:47 PM EDT
Astronomical Twilight 5:20 AM EDT 8:20 PM EDT
Moon 6:03 PM EDT (3/15) 6:03 AM EDT (3/15)
Length of Visible Light 12h 50m
Length of Day
11h 54m
Waxing Gibbous, 99% of the Moon is Illuminated
Mar 15
Waxing Gibbous
Mar 16
Full
Mar 23
Last Quarter
Mar 30
New
Apr 7
First Quarter

Hourly Weather History & Observations

Time (EDT) Temp. Windchill Dew Point Humidity Pressure Visibility Wind Dir Wind Speed Gust Speed Precip Events Conditions
12:56 AM 39.0 °F 30.6 °F 33.1 °F 79% 29.96 in 10.0 mi SSW 15.0 mph - N/A   Clear
1:56 AM 39.9 °F 32.5 °F 34.0 °F 79% 29.94 in 10.0 mi SSW 12.7 mph 21.9 mph N/A   Clear
2:56 AM 39.9 °F 33.4 °F 35.1 °F 83% 29.90 in 10.0 mi SSW 10.4 mph - N/A   Clear
3:56 AM 39.9 °F 33.4 °F 36.0 °F 86% 29.86 in 10.0 mi South 10.4 mph - N/A   Clear
4:56 AM 41.0 °F 35.8 °F 36.0 °F 82% 29.84 in 10.0 mi South 8.1 mph - N/A   Clear
5:56 AM 42.1 °F 36.1 °F 35.1 °F 76% 29.81 in 10.0 mi SSW 10.4 mph - N/A   Clear
6:56 AM 45.0 °F 37.6 °F 34.0 °F 65% 29.80 in 10.0 mi SW 17.3 mph 26.5 mph N/A   Clear
7:56 AM 44.1 °F 36.5 °F 36.0 °F 73% 29.80 in 10.0 mi SW 17.3 mph 24.2 mph N/A   Mostly Cloudy
8:56 AM 45.0 °F 37.9 °F 36.0 °F 71% 29.80 in 10.0 mi SW 16.1 mph - N/A   Overcast
9:56 AM 42.1 °F 36.6 °F 37.9 °F 85% 29.78 in 5.0 mi South 9.2 mph - 0.01 in Rain Light Rain
10:56 AM 45.0 °F 37.6 °F 39.9 °F 82% 29.76 in 8.0 mi SW 17.3 mph 25.3 mph 0.00 in   Clear
11:56 AM 48.0 °F - 39.0 °F 71% 29.74 in 10.0 mi SSW 13.8 mph 24.2 mph N/A   Clear
12:56 PM 46.9 °F - 37.0 °F 68% 29.74 in 10.0 mi SSW 18.4 mph 26.5 mph N/A   Mostly Cloudy
1:56 PM 46.9 °F - 37.0 °F 68% 29.72 in 10.0 mi SW 17.3 mph 26.5 mph N/A   Mostly Cloudy
2:56 PM 46.0 °F 39.3 °F 37.0 °F 71% 29.70 in 10.0 mi SW 16.1 mph - N/A   Overcast
3:56 PM 48.9 °F - 36.0 °F 61% 29.70 in 10.0 mi SW 15.0 mph - N/A   Scattered Clouds
4:56 PM 48.9 °F - 34.0 °F 56% 29.70 in 10.0 mi SSW 11.5 mph - N/A   Partly Cloudy
5:56 PM 51.1 °F - 33.1 °F 50% 29.74 in 10.0 mi WNW 11.5 mph 24.2 mph N/A   Partly Cloudy
6:56 PM 48.9 °F - 30.9 °F 50% 29.78 in 10.0 mi WNW 15.0 mph 23.0 mph N/A   Clear
7:56 PM 48.0 °F - 28.0 °F 46% 29.82 in 10.0 mi WNW 12.7 mph - N/A   Clear
8:56 PM 46.0 °F 41.9 °F 28.0 °F 50% 29.84 in 10.0 mi WNW 8.1 mph - N/A   Clear
9:56 PM 44.1 °F 40.1 °F 28.0 °F 53% 29.86 in 10.0 mi West 6.9 mph - N/A   Clear
10:56 PM 37.9 °F 35.5 °F 27.0 °F 65% 29.88 in 10.0 mi SW 3.5 mph - N/A   Clear
11:56 PM 33.1 °F - 25.0 °F 72% 29.87 in 10.0 mi Calm Calm - N/A   Partly Cloudy